Vorticity
13 14 15 16 16 15 13 11 10 9 9 8 8 7 7 6 5 5 4 5 5 4 4 4 4 3 3 4 4 4 5 5 6 6 7 8 8 8 9 9 9 9 9 8 8 8 8 7 8 8 8 8 8 8 8 9 9 9 8 8 8 7 6 5 5 4 3 4 6
12 14 15 16 17 16 15 13 12 10 10 9 8 8 7 7 6 4 4 5 4 3 2 3 3 3 3 4 4 4 4 5 5 6 7 7 8 8 9 9 9 10 10 10 9 9 9 8 8 8 7 7 7 7 8 9 9 8 8 9 9 8 8 7 6 6 7 5 4
10 12 13 15 16 17 16 16 14 12 11 10 9 8 7 7 6 5 4 4 3 3 4 4 4 4 3 2 4 4 4 4 5 5 6 6 7 8 8 9 10 10 10 10 10 10 10 9 9 8 7 6 7 7 7 7 8 9 9 10 9 8 8 7 5 6 8 8 7
8 9 10 12 13 15 16 16 16 14 12 10 9 8 8 7 6 5 4 2 3 4 5 3 3 3 3 3 3 4 4 5 5 5 5 6 7 7 8 9 9 10 10 10 10 10 10 10 9 9 8 8 8 8 7 7 9 9 9 7 5 5 5 4 4 4 6 8 8
6 7 7 8 10 12 13 15 15 15 14 12 11 10 9 8 7 6 5 5 5 4 3 2 2 2 3 4 4 4 4 5 5 5 5 6 6 7 8 8 9 9 9 10 10 10 10 10 10 10 9 9 9 9 9 9 10 9 8 5 5 5 6 6 5 6 6 5 4
7 7 7 7 8 9 10 12 13 14 14 13 13 12 11 10 9 8 7 7 4 3 2 2 2 3 4 4 4 4 4 4 5 5 6 6 6 7 7 8 8 9 9 10 10 10 10 9 9 9 9 8 9 9 9 9 8 7 6 6 8 10 11 12 12 12 10 8 5
10 10 9 9 9 9 10 10 11 12 12 13 14 13 13 12 11 10 8 6 4 4 4 4 4 4 4 4 4 4 4 4 5 6 6 6 6 6 7 8 8 9 9 10 10 9 9 9 9 8 8 8 8 8 8 8 7 7 8 10 12 13 13 13 13 12 12 11 8
13 13 12 12 12 11 11 11 11 11 12 13 14 14 14 13 12 11 9 8 7 6 5 5 5 4 4 3 3 3 4 4 5 6 7 7 7 7 8 8 8 9 10 10 10 9 9 10 10 9 8 9 10 9 8 8 8 9 10 11 12 12 12 11 11 11 11 11 11
14 14 14 14 14 13 13 13 13 13 13 13 14 14 14 14 13 12 11 11 9 8 7 7 6 5 4 4 4 4 4 5 6 7 7 8 8 8 9 9 9 9 10 10 10 10 9 10 11 11 11 11 11 11 11 11 12 12 12 12 12 12 12 12 12 13 13 12 12
12 13 13 13 13 13 13 13 13 14 14 14 14 14 14 14 14 14 14 13 11 10 10 10 7 6 6 5 4 5 6 7 8 9 9 10 10 10 9 9 9 9 9 10 9 9 10 10 12 13 13 14 13 14 14 14 14 14 13 13 13 13 13 13 14 13 13 12 12
10 10 10 10 11 11 11 12 12 13 13 13 14 14 14 14 14 14 14 14 14 13 12 10 8 7 7 6 7 8 9 10 11 10 10 10 10 10 10 9 9 10 10 10 10 10 11 12 13 15 15 15 15 15 15 15 15 14 14 14 13 13 12 12 12 11 10 9 8
8 8 9 9 9 9 10 10 11 11 12 12 12 13 13 13 14 14 14 15 15 14 12 10 10 10 10 10 11 12 13 13 12 11 10 10 10 11 10 10 11 11 12 12 12 13 13 14 15 16 15 15 14 14 14 14 13 13 12 12 11 10 10 9 9 9 8 8 8
9 9 10 10 10 10 10 10 10 10 11 11 12 12 12 12 13 13 14 14 13 12 11 11 13 13 14 15 15 15 14 13 12 12 12 12 12 12 12 12 12 13 14 14 14 14 14 15 15 14 14 13 13 12 11 11 10 10 9 9 8 8 8 8 8 9 9 10 10
11 11 12 12 12 12 12 12 12 12 11 12 12 12 12 12 13 13 13 13 13 13 13 14 16 17 18 18 18 17 16 14 14 14 14 15 15 14 14 13 13 14 14 15 15 14 14 13 13 12 12 11 10 9 8 8 7 7 6 6 6 6 6 7 7 8 8 9 10
12 12 13 13 13 13 13 13 13 13 13 13 13 14 14 14 14 14 15 15 15 16 18 19 20 20 20 20 20 19 18 17 17 17 17 17 16 15 14 14 14 14 14 14 13 13 12 11 10 10 9 8 7 7 6 6 5 5 5 5 5 6 6 7 7 8 8 8 9
11 11 12 12 13 13 14 14 15 16 16 16 17 17 17 18 18 18 19 20 20 21 22 22 23 23 23 22 21 20 19 19 18 17 16 16 15 14 14 14 13 13 13 12 11 10 9 8 7 6 6 5 5 5 5 5 5 6 6 6 6 7 7 8 8 9 9 9 10
9 10 10 11 12 13 14 16 17 18 19 20 21 22 22 23 23 23 24 24 24 24 24 24 24 24 23 22 20 19 18 17 16 16 15 14 14 14 13 13 12 11 10 9 8 7 6 5 5 5 5 5 5 5 6 6 6 7 7 7 8 8 8 9 9 9 9 9 10
9 9 10 11 12 14 16 17 19 20 22 23 24 24 24 24 24 24 23 23 23 22 22 22 21 20 19 18 17 16 16 15 14 14 13 13 13 12 11 10 9 8 6 6 5 5 5 5 5 5 5 5 6 6 6 6 7 7 7 7 8 8 8 8 8 8 8 8 9
10 10 11 13 14 15 16 17 18 19 20 20 21 21 20 20 20 19 19 18 17 17 17 16 16 15 14 14 14 14 13 13 12 12 11 10 10 8 7 6 6 5 5 5 5 5 5 5 6 6 6 6 6 6 6 6 6 6 6 6 6 6 7 7 7 8 8 8 8
11 12 13 14 15 15 15 15 15 15 15 15 15 15 14 14 14 14 14 13 13 12 12 12 12 12 12 12 12 11 11 10 10 9 8 7 6 6 5 5 5 5 5 5 6 6 6 6 6 6 5 5 5 5 5 5 6 6 6 6 6 7 7 7 8 8 8 8 9
14 14 14 14 14 14 13 13 12 12 11 11 10 10 10 10 10 10 10 11 10 10 10 10 10 10 10 10 9 8 8 7 6 6 5 5 5 5 5 5 5 5 5 5 5 5 5 5 5 5 5 5 5 5 5 6 6 7 7 8 8 8 9 9 9 9 9 10 10
14 14 13 13 12 12 11 11 10 10 9 9 9 9 8 8 8 8 9 9 8 8 8 8 8 8 7 7 6 6 5 5 5 5 5 5 6 6 6 5 5 5 4 4 4 4 4 4 4 4 4 4 5 5 6 6 7 8 8 9 9 9 10 10 10 10 10 10 10
12 11 11 10 10 10 10 10 9 9 9 8 8 8 8 8 7 7 7 7 7 7 7 6 6 6 5 5 5 5 5 6 6 6 6 6 5 5 4 4 4 3 3 3 2 2 3 3 3 4 4 4 5 6 7 8 8 8 9 9 9 10 10 10 10 11 11 11 12
9 9 8 8 8 8 8 8 8 8 8 7 7 7 7 7 6 6 6 6 6 6 5 5 5 5 5 6 6 6 6 6 6 5 5 4 4 3 3 2 2 2 2 2 2 3 3 3 4 4 5 6 7 8 8 9 9 10 10 10 10 10 11 11 12 12 13 13 14
7 7 7 7 7 7 7 6 7 6 6 6 6 6 6 6 6 5 5 5 5 5 5 6 6 6 7 7 7 6 5 4 3 3 3 3 3 3 2 2 2 2 3 3 4 4 5 6 6 6 7 8 9 10 10 11 11 12 12 12 12 13 13 14 15 15 16 16 16
6 6 6 6 6 6 6 6 6 5 5 5 5 5 5 5 5 5 5 6 6 6 7 7 7 7 7 6 5 4 4 3 2 2 2 2 2 2 2 3 3 3 4 5 6 6 7 8 9 9 10 10 11 11 12 12 13 13 14 14 14 15 16 16 17 17 18 18 17
6 6 6 5 5 5 5 5 4 4 4 4 4 4 5 4 5 6 7 7 7 7 7 7 6 5 3 2 2 2 2 2 2 2 2 2 2 2 3 4 4 5 6 7 8 9 10 10 11 11 12 12 12 12 12 13 13 14 15 15 16 16 17 17 17 17 17 17 16
7 6 6 5 5 4 4 4 4 4 4 5 5 6 6 6 7 8 8 8 7 6 6 5 3 2 1 1 1 2 2 2 2 3 3 3 4 4 5 6 7 8 8 9 10 11 11 12 12 12 12 12 12 13 13 13 14 15 16 16 16 16 17 16 16 15 14 14 13
7 6 5 4 4 4 4 4 5 6 7 7 7 7 8 8 8 8 7 6 5 4 2 1 0 1 1 2 2 3 3 4 4 4 4 5 6 7 7 8 9 10 10 11 12 12 12 12 12 12 12 12 13 13 14 15 15 16 16 16 16 16 15 14 13 12 11 10 9
6 5 4 4 4 5 6 7 8 9 9 9 8 8 8 8 7 6 5 3 2 1 0 -0 1 2 3 4 4 4 5 5 6 6 6 7 8 8 9 10 10 11 11 12 12 11 11 11 12 12 13 14 14 15 15 16 16 16 15 15 14 13 13 11 10 9 8 7 6
5 5 5 5 6 7 9 10 10 9 9 8 8 8 7 6 5 3 2 1 0 0 1 2 3 4 5 6 6 6 6 6 7 8 8 9 9 10 10 10 11 11 11 11 11 11 12 12 13 14 14 15 15 15 15 15 15 14 14 13 12 10 9 8 7 6 5 5 5
6 6 6 7 9 10 10 10 9 8 8 7 7 6 5 4 2 1 1 1 2 2 4 5 6 6 7 7 7 7 7 8 8 9 9 10 10 10 11 11 11 11 12 12 12 12 13 14 14 14 15 15 15 15 14 14 13 12 11 10 8 7 6 6 5 5 4 4 5
7 8 8 9 10 10 9 8 7 7 6 6 5 4 2 1 1 1 2 4 5 6 7 8 8 8 7 7 7 8 8 9 9 10 10 10 11 11 11 11 12 12 12 12 13 14 14 14 14 15 15 14 14 14 13 12 11 10 8 7 6 5 5 4 4 4 4 5 5
9 9 9 9 9 8 7 6 6 6 5 4 2 2 1 2 3 4 6 7 8 8 8 8 8 7 7 7 8 8 9 9 10 10 11 11 11 11 12 12 13 13 13 13 14 14 14 14 14 14 14 13 12 12 10 9 8 7 6 5 5 4 4 4 4 5 5 5 4
9 9 8 8 7 6 6 5 4 4 2 1 1 2 4 6 7 8 9 9 8 8 7 7 7 7 8 8 9 9 10 10 11 11 11 11 12 12 13 13 13 13 14 14 14 14 14 14 14 13 12 11 10 9 8 7 6 5 5 4 4 4 4 4 4 4 4 4 4
8 7 6 6 6 5 4 3 2 2 2 3 4 6 8 9 10 9 8 7 7 6 6 7 7 8 9 10 10 11 11 11 11 12 12 12 12 13 13 13 13 13 14 14 14 13 13 13 12 11 10 9 8 7 6 5 4 4 4 4 4 4 4 4 4 4 4 4 4
7 6 5 4 4 3 2 2 2 4 5 7 9 10 10 9 8 7 6 6 6 7 7 8 9 10 10 11 11 11 12 12 12 12 12 13 13 13 13 13 13 13 13 13 13 13 12 11 10 9 8 6 6 5 4 4 4 4 4 4 4 4 4 4 4 4 4 4 5
5 4 3 2 2 2 2 4 6 8 9 10 10 9 8 6 6 6 6 7 8 8 9 10 10 11 11 11 11 12 12 12 12 12 12 13 13 13 13 13 13 13 13 13 12 11 10 9 8 7 6 5 4 4 4 4 4 4 4 4 4 4 4 4 4 4 4 5 6
3 2 2 2 2 4 6 8 9 10 10 9 7 6 6 6 6 7 7 8 9 10 10 11 11 11 11 12 12 12 12 12 13 13 13 13 13 13 13 12 12 12 12 12 11 10 8 7 6 5 5 4 4 4 4 4 5 5 4 4 4 4 4 4 4 4 5 6 7
2 2 2 4 6 8 9 10 10 9 8 6 6 5 6 6 7 8 9 10 10 11 11 11 11 11 11 12 12 12 12 12 13 13 13 12 12 12 13 12 11 11 10 10 8 7 6 5 5 5 4 4 5 5 5 5 4 4 4 4 4 4 4 5 5 6 6 7 9
2 4 5 7 9 10 10 9 8 6 6 5 6 6 7 8 9 9 10 10 11 11 11 11 11 11 12 12 12 12 12 12 13 13 13 12 12 12 12 12 10 9 8 8 6 5 5 4 4 4 5 5 5 5 4 4 4 4 4 4 4 4 4 4 6 7 9 9 11
Height
3091 3091 3092 3093 3094 3095 3096 3097 3098 3099 3099 3100 3100 3101 3101 3102 3102 3102 3102 3102 3102 3102 3102 3102 3102 3103 3103 3103 3103 3103 3104 3104 3104 3105 3105 3106 3106 3106 3106 3107 3107 3107 3107 3108 3108 3108 3108 3108 3108 3108 3109 3109 3109 3109 3109 3109 3109 3109 3108 3108 3108 3108 3108 3108 3108 3108 3107 3106 3105
3089 3090 3091 3092 3093 3093 3094 3095 3096 3097 3098 3098 3099 3099 3100 3100 3100 3100 3100 3100 3100 3100 3101 3101 3101 3101 3101 3101 3102 3102 3102 3103 3103 3103 3104 3104 3104 3105 3105 3105 3105 3106 3106 3106 3106 3107 3107 3107 3107 3107 3107 3107 3108 3108 3108 3107 3107 3107 3107 3107 3106 3106 3106 3106 3106 3106 3106 3105 3103
3088 3089 3089 3090 3091 3092 3093 3093 3094 3095 3096 3097 3097 3098 3098 3098 3099 3099 3099 3099 3099 3099 3099 3099 3099 3099 3100 3100 3100 3100 3101 3101 3101 3102 3102 3103 3103 3103 3103 3104 3104 3104 3104 3105 3105 3105 3105 3105 3106 3106 3106 3106 3106 3105 3105 3105 3105 3105 3105 3105 3104 3104 3103 3103 3103 3103 3103 3103 3102
3087 3088 3088 3089 3090 3090 3091 3092 3093 3093 3094 3095 3095 3096 3097 3097 3097 3097 3097 3097 3098 3098 3098 3098 3098 3098 3098 3098 3098 3099 3099 3099 3100 3100 3100 3101 3101 3102 3102 3103 3103 3103 3103 3103 3103 3103 3104 3104 3104 3104 3104 3104 3104 3104 3104 3103 3103 3103 3103 3102 3102 3102 3101 3101 3101 3100 3100 3100 3100
3086 3086 3087 3088 3088 3089 3090 3090 3091 3092 3092 3093 3093 3094 3095 3095 3095 3096 3096 3096 3096 3096 3096 3096 3096 3096 3097 3097 3097 3097 3098 3098 3098 3098 3099 3099 3100 3100 3101 3101 3101 3102 3102 3102 3102 3102 3102 3102 3102 3102 3102 3102 3102 3102 3101 3101 3101 3100 3100 3100 3100 3099 3099 3099 3098 3098 3098 3097 3097
3084 3085 3086 3086 3087 3088 3088 3088 3089 3090 3090 3091 3092 3092 3093 3093 3094 3094 3094 3094 3094 3094 3094 3094 3095 3095 3095 3095 3095 3096 3096 3096 3096 3097 3097 3098 3098 3099 3099 3100 3100 3100 3100 3100 3101 3101 3101 3101 3100 3100 3100 3100 3099 3099 3099 3099 3098 3098 3098 3098 3098 3098 3097 3097 3096 3096 3095 3094 3094
3083 3083 3084 3085 3085 3086 3087 3087 3088 3088 3089 3089 3090 3091 3091 3092 3092 3093 3093 3093 3093 3093 3093 3093 3093 3093 3093 3094 3094 3094 3094 3094 3095 3095 3096 3096 3097 3098 3098 3098 3098 3099 3099 3099 3099 3099 3099 3099 3098 3098 3098 3098 3098 3097 3097 3097 3097 3096 3096 3096 3096 3095 3094 3094 3093 3093 3092 3091 3091
3082 3082 3083 3083 3084 3084 3085 3085 3086 3087 3087 3088 3088 3089 3089 3090 3090 3091 3091 3091 3091 3091 3092 3092 3092 3092 3092 3092 3092 3093 3093 3093 3093 3094 3094 3095 3096 3096 3097 3097 3097 3097 3097 3097 3098 3098 3097 3097 3097 3097 3097 3096 3096 3096 3095 3095 3095 3094 3094 3094 3093 3093 3092 3092 3091 3090 3089 3089 3088
3080 3081 3081 3082 3083 3083 3083 3084 3085 3085 3086 3086 3087 3087 3088 3088 3088 3089 3089 3089 3090 3090 3090 3090 3090 3091 3091 3091 3091 3091 3091 3091 3092 3093 3093 3094 3094 3095 3095 3096 3096 3096 3096 3096 3096 3096 3096 3095 3095 3095 3095 3095 3094 3094 3094 3094 3093 3093 3092 3091 3091 3090 3090 3089 3088 3088 3087 3086 3085
3079 3079 3080 3081 3081 3082 3082 3083 3083 3083 3084 3084 3085 3085 3086 3086 3087 3087 3088 3088 3088 3088 3089 3089 3089 3089 3089 3089 3089 3089 3090 3090 3091 3092 3092 3093 3093 3094 3094 3094 3094 3094 3094 3094 3094 3093 3093 3093 3093 3093 3093 3093 3093 3092 3092 3092 3091 3090 3090 3089 3089 3088 3088 3087 3087 3086 3085 3084 3083
3078 3078 3079 3079 3080 3080 3081 3081 3082 3082 3083 3083 3083 3084 3084 3085 3085 3086 3086 3086 3087 3087 3087 3087 3088 3088 3088 3088 3088 3088 3089 3090 3090 3091 3092 3092 3092 3093 3093 3093 3093 3093 3093 3092 3092 3092 3092 3092 3092 3091 3091 3091 3091 3090 3090 3089 3089 3088 3088 3087 3087 3086 3086 3085 3084 3084 3083 3082 3081
3077 3077 3078 3078 3078 3079 3079 3080 3080 3081 3081 3082 3082 3082 3083 3083 3083 3084 3084 3084 3085 3085 3085 3085 3086 3086 3086 3086 3087 3087 3088 3089 3090 3090 3090 3091 3091 3091 3091 3091 3091 3091 3091 3091 3091 3091 3091 3090 3090 3090 3089 3089 3089 3088 3088 3088 3087 3087 3086 3085 3085 3084 3083 3083 3083 3082 3081 3080 3079
3075 3076 3077 3077 3078 3078 3078 3078 3079 3079 3080 3080 3080 3081 3081 3082 3082 3082 3083 3083 3083 3083 3084 3084 3084 3084 3084 3085 3086 3087 3088 3088 3088 3089 3089 3089 3090 3090 3090 3090 3090 3090 3090 3090 3089 3089 3089 3088 3088 3088 3088 3087 3087 3087 3086 3086 3085 3085 3084 3083 3083 3083 3082 3081 3081 3080 3079 3078 3078
3074 3075 3075 3076 3076 3077 3077 3077 3078 3078 3078 3078 3079 3079 3079 3080 3080 3081 3081 3082 3082 3082 3082 3083 3083 3083 3084 3085 3085 3086 3087 3087 3087 3088 3088 3088 3088 3088 3088 3088 3088 3088 3088 3088 3088 3088 3087 3087 3087 3086 3086 3086 3085 3085 3085 3084 3083 3083 3082 3082 3081 3080 3080 3079 3078 3078 3077 3076 3075
3073 3074 3074 3075 3075 3075 3076 3076 3076 3077 3077 3077 3078 3078 3078 3078 3079 3079 3080 3080 3080 3081 3081 3081 3082 3083 3083 3084 3084 3085 3085 3086 3086 3087 3087 3087 3087 3087 3087 3087 3087 3087 3087 3087 3086 3086 3086 3086 3085 3085 3085 3084 3084 3083 3083 3083 3082 3081 3080 3080 3079 3078 3077 3077 3076 3075 3074 3073 3072
3072 3073 3073 3073 3074 3074 3074 3075 3075 3075 3076 3076 3076 3077 3077 3077 3078 3078 3078 3078 3079 3080 3080 3081 3081 3082 3082 3083 3083 3084 3084 3085 3085 3085 3086 3086 3086 3086 3086 3086 3085 3085 3085 3085 3085 3085 3084 3084 3084 3083 3083 3083 3082 3082 3081 3081 3080 3079 3078 3078 3077 3076 3075 3074 3073 3072 3071 3070 3069
3071 3072 3072 3073 3073 3073 3073 3074 3074 3074 3074 3075 3075 3075 3076 3076 3077 3077 3077 3078 3078 3079 3079 3080 3080 3081 3081 3082 3082 3083 3083 3084 3084 3084 3084 3084 3084 3084 3084 3084 3084 3084 3084 3084 3084 3083 3083 3083 3083 3082 3082 3081 3081 3080 3079 3079 3078 3077 3076 3075 3074 3073 3073 3072 3071 3069 3068 3068 3067
3071 3071 3072 3072 3072 3072 3073 3073 3073 3073 3073 3074 3074 3074 3075 3075 3076 3076 3077 3077 3078 3078 3078 3079 3079 3080 3081 3081 3082 3082 3082 3083 3083 3083 3083 3083 3083 3083 3083 3083 3083 3083 3083 3083 3082 3082 3082 3081 3081 3080 3080 3079 3079 3078 3078 3077 3076 3075 3074 3073 3072 3071 3070 3069 3068 3067 3066 3065 3064
3070 3070 3071 3071 3071 3072 3072 3072 3072 3073 3073 3073 3073 3074 3074 3074 3075 3075 3076 3076 3077 3077 3078 3078 3078 3079 3080 3080 3081 3081 3081 3081 3082 3082 3082 3082 3082 3082 3082 3082 3082 3082 3082 3081 3081 3081 3080 3080 3079 3079 3078 3078 3077 3076 3076 3075 3074 3073 3072 3071 3070 3069 3068 3067 3066 3064 3063 3062 3061
3069 3070 3070 3070 3071 3071 3071 3071 3072 3072 3072 3073 3073 3073 3073 3074 3074 3075 3075 3076 3076 3077 3077 3078 3078 3079 3079 3080 3080 3080 3080 3081 3081 3081 3081 3081 3081 3081 3081 3081 3081 3080 3080 3080 3079 3079 3079 3078 3078 3077 3076 3076 3075 3074 3073 3072 3071 3070 3069 3068 3067 3066 3065 3064 3063 3062 3061 3059 3058
3068 3069 3069 3070 3070 3070 3070 3071 3071 3071 3072 3072 3072 3073 3073 3073 3074 3074 3075 3075 3076 3076 3077 3077 3078 3078 3078 3079 3079 3079 3080 3080 3080 3080 3080 3080 3080 3080 3080 3080 3079 3079 3079 3078 3078 3078 3077 3076 3076 3075 3074 3073 3072 3072 3071 3070 3069 3068 3067 3066 3065 3063 3063 3061 3060 3059 3058 3057 3056
3068 3068 3069 3069 3069 3070 3070 3070 3071 3071 3071 3071 3072 3072 3073 3073 3073 3074 3074 3075 3075 3076 3076 3077 3077 3078 3078 3078 3078 3079 3079 3079 3079 3079 3079 3079 3079 3079 3078 3078 3078 3078 3078 3077 3077 3076 3075 3075 3074 3073 3072 3071 3070 3069 3068 3067 3066 3065 3064 3063 3062 3061 3060 3058 3058 3056 3055 3054 3053
3067 3068 3068 3068 3069 3069 3069 3070 3070 3070 3071 3071 3071 3072 3072 3073 3073 3073 3074 3074 3075 3075 3076 3076 3077 3077 3077 3078 3078 3078 3078 3078 3078 3078 3078 3078 3078 3078 3077 3077 3077 3076 3076 3076 3075 3074 3073 3073 3072 3071 3070 3068 3068 3067 3066 3065 3064 3063 3062 3060 3059 3058 3057 3056 3055 3053 3052 3051 3050
3067 3067 3068 3068 3068 3068 3069 3069 3069 3070 3070 3071 3071 3071 3072 3072 3073 3073 3074 3074 3074 3075 3075 3076 3076 3077 3077 3077 3077 3077 3077 3077 3077 3077 3077 3077 3077 3076 3076 3076 3075 3075 3074 3073 3073 3072 3071 3070 3069 3068 3067 3066 3065 3064 3063 3063 3061 3060 3059 3058 3057 3056 3054 3053 3052 3051 3050 3048 3047
3066 3067 3067 3067 3068 3068 3068 3069 3069 3069 3070 3070 3071 3071 3071 3072 3072 3073 3073 3074 3074 3075 3075 3075 3076 3076 3076 3076 3076 3076 3076 3076 3076 3076 3076 3075 3075 3075 3074 3074 3073 3073 3072 3071 3071 3070 3069 3068 3067 3066 3065 3064 3063 3062 3061 3060 3059 3058 3057 3056 3054 3053 3052 3051 3049 3048 3047 3046 3044
3065 3066 3066 3067 3067 3068 3068 3068 3069 3069 3069 3070 3070 3071 3071 3072 3072 3073 3073 3073 3074 3074 3075 3075 3075 3075 3075 3076 3076 3075 3075 3075 3075 3075 3074 3074 3073 3073 3073 3072 3071 3071 3070 3069 3068 3068 3067 3066 3065 3063 3063 3062 3061 3060 3059 3058 3057 3056 3054 3053 3052 3051 3049 3048 3047 3046 3045 3043 3042
3065 3065 3066 3066 3067 3067 3068 3068 3068 3069 3069 3069 3070 3070 3071 3071 3072 3072 3073 3073 3073 3074 3074 3074 3074 3075 3075 3075 3074 3074 3074 3074 3073 3073 3073 3072 3072 3071 3070 3070 3069 3069 3068 3067 3067 3066 3064 3063 3062 3061 3060 3059 3058 3057 3056 3055 3054 3053 3052 3051 3049 3048 3047 3046 3045 3043 3042 3041 3040
3064 3065 3065 3066 3066 3067 3067 3068 3068 3068 3069 3069 3070 3070 3071 3071 3071 3072 3072 3073 3073 3073 3073 3073 3073 3073 3073 3073 3073 3073 3073 3072 3072 3071 3071 3070 3070 3069 3069 3068 3068 3067 3066 3065 3064 3063 3062 3061 3060 3059 3058 3057 3056 3055 3054 3053 3052 3051 3049 3048 3047 3046 3045 3044 3043 3042 3040 3039 3038
3063 3064 3065 3065 3066 3066 3067 3067 3068 3068 3068 3069 3069 3070 3070 3071 3071 3071 3072 3072 3072 3072 3072 3073 3073 3072 3072 3072 3072 3071 3071 3071 3070 3070 3069 3069 3068 3068 3067 3066 3066 3065 3064 3063 3062 3061 3060 3059 3058 3057 3055 3054 3053 3053 3052 3051 3049 3048 3047 3046 3045 3044 3043 3042 3041 3040 3038 3037 3036
3063 3063 3064 3065 3065 3066 3066 3067 3067 3068 3068 3068 3069 3069 3070 3070 3070 3071 3071 3071 3071 3071 3071 3071 3071 3071 3071 3070 3070 3070 3069 3069 3068 3068 3068 3067 3066 3066 3065 3064 3064 3063 3062 3061 3060 3059 3058 3057 3056 3054 3053 3052 3051 3050 3049 3048 3047 3046 3045 3044 3043 3042 3041 3040 3039 3038 3037 3035 3034
3063 3063 3063 3064 3065 3065 3066 3066 3067 3067 3068 3068 3068 3069 3069 3069 3070 3070 3070 3070 3070 3070 3070 3070 3070 3069 3069 3069 3068 3068 3068 3067 3067 3066 3066 3065 3064 3064 3063 3063 3062 3061 3060 3059 3058 3057 3056 3055 3054 3053 3051 3050 3049 3048 3047 3046 3045 3044 3043 3043 3042 3041 3039 3038 3037 3036 3035 3033 3032
3062 3063 3063 3063 3064 3065 3065 3066 3066 3067 3067 3068 3068 3068 3068 3068 3069 3069 3069 3069 3069 3069 3069 3068 3068 3068 3068 3068 3067 3067 3066 3066 3065 3065 3064 3063 3063 3062 3061 3060 3060 3059 3058 3057 3056 3055 3054 3053 3052 3051 3050 3048 3048 3047 3045 3045 3044 3043 3042 3041 3040 3039 3038 3037 3036 3034 3033 3032 3030
3061 3062 3063 3063 3064 3064 3065 3065 3066 3066 3066 3067 3067 3067 3068 3068 3068 3068 3068 3068 3068 3068 3067 3067 3067 3067 3066 3066 3065 3065 3064 3064 3063 3063 3062 3062 3061 3060 3059 3058 3058 3057 3056 3055 3054 3053 3052 3051 3050 3049 3048 3047 3046 3045 3044 3043 3042 3041 3040 3039 3038 3037 3036 3035 3033 3032 3031 3029 3028
3061 3061 3062 3063 3063 3064 3064 3065 3065 3065 3066 3066 3066 3066 3067 3067 3067 3067 3067 3067 3066 3066 3066 3066 3066 3065 3065 3064 3064 3063 3063 3062 3062 3061 3060 3060 3059 3058 3057 3057 3056 3055 3054 3053 3052 3051 3050 3049 3048 3048 3047 3046 3044 3043 3043 3042 3041 3040 3039 3038 3037 3035 3034 3033 3032 3030 3029 3027 3026
3060 3061 3062 3062 3063 3063 3063 3064 3064 3064 3065 3065 3065 3065 3065 3065 3065 3065 3065 3065 3065 3065 3065 3064 3064 3064 3063 3063 3062 3062 3061 3060 3060 3059 3058 3058 3057 3056 3055 3055 3054 3053 3052 3051 3050 3049 3049 3048 3047 3046 3045 3044 3043 3042 3041 3040 3039 3038 3037 3036 3035 3034 3033 3031 3029 3028 3027 3025 3023
3060 3060 3061 3061 3062 3062 3063 3063 3063 3063 3064 3064 3064 3064 3064 3064 3064 3064 3064 3064 3064 3063 3063 3063 3063 3062 3062 3061 3060 3060 3059 3058 3058 3057 3057 3056 3055 3054 3054 3053 3052 3051 3050 3050 3049 3048 3047 3046 3046 3045 3044 3043 3042 3041 3040 3039 3038 3037 3036 3035 3033 3032 3031 3029 3028 3026 3024 3023 3021
3059 3060 3060 3061 3061 3062 3062 3062 3063 3063 3063 3063 3063 3063 3063 3063 3063 3063 3063 3063 3062 3062 3062 3061 3061 3060 3060 3059 3059 3058 3058 3057 3056 3056 3055 3054 3053 3053 3052 3051 3051 3050 3049 3048 3048 3047 3046 3045 3044 3043 3043 3042 3041 3040 3039 3038 3037 3036 3034 3033 3032 3030 3029 3027 3025 3024 3022 3020 3018
3058 3059 3059 3060 3060 3061 3061 3061 3061 3062 3062 3062 3062 3062 3062 3062 3062 3062 3061 3061 3061 3060 3060 3059 3059 3058 3058 3058 3057 3057 3056 3055 3055 3054 3053 3053 3052 3051 3051 3050 3049 3048 3048 3047 3046 3045 3045 3044 3043 3042 3041 3040 3039 3038 3037 3036 3035 3034 3033 3031 3030 3028 3027 3025 3023 3021 3019 3017 3015
3058 3058 3059 3059 3059 3060 3060 3060 3060 3060 3060 3061 3061 3061 3061 3061 3060 3060 3060 3060 3059 3059 3058 3058 3058 3057 3056 3056 3055 3055 3054 3053 3053 3052 3052 3051 3050 3050 3049 3048 3048 3047 3047 3046 3045 3044 3043 3043 3042 3041 3040 3038 3038 3036 3035 3034 3033 3032 3030 3029 3027 3025 3023 3022 3020 3018 3016 3014 3012
3057 3058 3058 3058 3058 3059 3059 3059 3059 3059 3059 3059 3059 3059 3059 3059 3059 3059 3058 3058 3058 3057 3057 3056 3056 3055 3055 3054 3054 3053 3053 3052 3051 3051 3050 3050 3049 3048 3048 3047 3047 3046 3046 3045 3044 3043 3043 3041 3040 3039 3038 3037 3036 3034 3033 3032 3031 3029 3028 3026 3024 3023 3021 3019 3017 3015 3013 3011 3008
3056 3057 3057 3057 3058 3058 3058 3058 3058 3058 3058 3058 3058 3058 3058 3058 3058 3057 3057 3057 3056 3056 3055 3055 3054 3054 3053 3053 3052 3052 3051 3051 3050 3049 3049 3048 3048 3047 3047 3046 3045 3045 3044 3044 3043 3043 3042 3040 3039 3038 3037 3035 3034 3033 3032 3031 3029 3028 3026 3024 3022 3020 3018 3016 3014 3012 3010 3008 3005